| time (UTC) | temp F | wind direction | speed MPH | gust MPH | rain 1hr in | rain 24hr in | rain mn in | humidity % | barometer mb |
| 20260507104547 | 47 | 354 | 0.0 | 0.0 | 0.00 | 0.70 | 0.26 | 51 | 1006.1 |
| 20260507103042 | 47 | 340 | 0.0 | 0.0 | 0.00 | 0.70 | 0.26 | 45 | 1006.2 |
| 20260507101538 | 0 | 0.0 | 0.0 | 0.00 | 0.70 | 0.26 | 1006.1 | ||
| 20260507100035 | 0 | 0.0 | 0.0 | 0.00 | 0.70 | 0.26 | 1005.2 | ||
| 20260507094529 | 0 | 0.0 | 0.0 | 0.00 | 0.70 | 0.26 | 1005.8 | ||
| 20260507093025 | 0 | 0.0 | 0.0 | 0.00 | 0.70 | 0.26 | 1005.0 | ||
| 20260507091526 | 0 | 0.0 | 0.0 | 0.00 | 0.70 | 0.26 | 1005.6 | ||
| 20260507090020 | 0 | 0.0 | 0.0 | 0.00 | 0.70 | 0.26 | 1005.5 | ||
| 20260507084511 | 0 | 0.0 | 0.0 | 0.00 | 0.70 | 0.26 | 1005.4 | ||
| 20260507083007 | 0 | 0.0 | 0.0 | 0.00 | 0.70 | 0.26 | 1005.2 | ||
| 20260507081503 | 0 | 0.0 | 0.0 | 0.00 | 0.70 | 0.26 | 1005.4 | ||
| 20260507080115 | 0 | 0.0 | 0.0 | 0.00 | 0.70 | 0.26 | 1005.0 | ||
| 20260507074555 | 0 | 0.0 | 0.0 | 0.00 | 0.70 | 0.26 | 1005.1 | ||
| 20260507073050 | 0 | 0.0 | 0.0 | 0.00 | 0.70 | 0.26 | 1004.9 | ||
| 20260507071606 | 0 | 0.0 | 0.0 | 0.00 | 0.70 | 0.26 | 1004.4 | ||
| 20260507070045 | 0 | 0.0 | 0.0 | 0.00 | 0.70 | 0.26 | 1004.3 | ||
| 20260507064541 | 0 | 0.0 | 0.0 | 0.00 | 0.70 | 0.26 | 1004.1 | ||
| 20260507063042 | 0 | 0.0 | 0.0 | 0.00 | 0.70 | 0.26 | 1003.9 | ||
| 20260507061532 | 0 | 0.0 | 0.0 | 0.00 | 0.70 | 0.26 | 1004.3 | ||
| 20260507060036 | 0 | 0.0 | 0.0 | 0.00 | 0.70 | 0.26 | 1004.1 | ||
| 20260507054522 | 0 | 0.0 | 0.0 | 0.05 | 0.70 | 0.26 | 1003.8 | ||
| 20260507053018 | 0 | 0.0 | 0.0 | 0.19 | 0.70 | 0.26 | 1003.9 | ||
| 20260507051526 | 0 | 0.0 | 0.0 | 0.25 | 0.70 | 0.26 | 1003.9 | ||
| 20260507050012 | 51 | 342 | 0.0 | 0.0 | 0.26 | 0.70 | 0.26 | 1 | 1004.0 |
| 20260507044505 | 52 | 355 | 0.0 | 0.0 | 0.20 | 0.64 | 0.20 | 1 | 1004.4 |
| 20260507043003 | 52 | 233 | 0.0 | 0.0 | 0.06 | 0.50 | 0.06 | 1 | 1004.0 |
| 20260507041558 | 52 | 197 | 0.0 | 0.0 | 0.01 | 0.45 | 0.01 | 1 | 1003.2 |
| 20260507040052 | 51 | 186 | 0.0 | 0.0 | 0.00 | 0.44 | 0.00 | 1 | 1003.3 |
| 20260507034547 | 52 | 188 | 0.0 | 0.0 | 0.00 | 0.44 | 0.44 | 1 | 1003.4 |
| 20260507033048 | 52 | 212 | 0.0 | 0.0 | 0.01 | 0.44 | 0.44 | 1 | 1003.5 |
| 20260507031539 | 52 | 180 | 0.0 | 0.0 | 0.01 | 0.44 | 0.44 | 1 | 1003.4 |
| 20260507030034 | 52 | 164 | 0.0 | 0.0 | 0.01 | 0.44 | 0.44 | 1 | 1003.5 |
| 20260507024536 | 51 | 184 | 0.0 | 0.0 | 0.01 | 0.44 | 0.44 | 1 | 1003.9 |
| 20260507023033 | 51 | 173 | 0.0 | 0.0 | 0.00 | 0.43 | 0.43 | 1 | 1003.9 |
| 20260507021521 | 51 | 179 | 0.0 | 0.0 | 0.01 | 0.43 | 0.43 | 1 | 1004.1 |
| 20260507020021 | 50 | 195 | 0.0 | 0.0 | 0.01 | 0.43 | 0.43 | 1 | 1004.4 |
| 20260507014514 | 50 | 161 | 0.0 | 0.0 | 0.03 | 0.43 | 0.43 | 1 | 1004.6 |
| 20260507013008 | 50 | 208 | 0.0 | 0.0 | 0.03 | 0.43 | 0.43 | 1 | 1004.7 |
| 20260507011505 | 49 | 189 | 0.0 | 0.0 | 0.02 | 0.42 | 0.42 | 1 | 1004.7 |
| 20260507010112 | 49 | 196 | 0.0 | 0.0 | 0.02 | 0.42 | 0.42 | 1 | 1004.6 |
| 20260507004611 | 50 | 180 | 0.0 | 0.0 | 0.00 | 0.40 | 0.40 | 1 | 1005.1 |
| 20260507003054 | 49 | 209 | 0.0 | 0.0 | 0.00 | 0.40 | 0.40 | 1 | 1005.2 |
| 20260507001551 | 49 | 186 | 0.0 | 0.0 | 0.00 | 0.40 | 0.40 | 1 | 1005.1 |
| 20260507000043 | 49 | 211 | 0.0 | 0.0 | 0.00 | 0.40 | 0.40 | 1 | 1005.1 |
| 20260506234537 | 50 | 206 | 0.0 | 0.0 | 0.00 | 0.40 | 0.40 | 1 | 1005.4 |
| 20260506233034 | 50 | 219 | 0.0 | 0.0 | 0.02 | 0.40 | 0.40 | 1 | 1005.4 |
| 20260506231529 | 50 | 188 | 0.0 | 0.0 | 0.06 | 0.40 | 0.40 | 1 | 1005.5 |
| 20260506230025 | 50 | 169 | 0.0 | 0.0 | 0.08 | 0.40 | 0.40 | 1 | 1005.5 |
| 20260506224521 | 50 | 205 | 0.0 | 0.0 | 0.11 | 0.40 | 0.40 | 1 | 1005.6 |
| 20260506223017 | 51 | 224 | 0.0 | 0.0 | 0.15 | 0.38 | 0.38 | 1 | 1005.7 |
| 20260506221511 | 51 | 210 | 0.0 | 0.0 | 0.18 | 0.34 | 0.34 | 1 | 1005.8 |
| 20260506220018 | 51 | 174 | 0.0 | 0.0 | 0.19 | 0.32 | 0.32 | 1 | 1006.0 |
| 20260506214505 | 51 | 182 | 0.0 | 0.0 | 0.18 | 0.28 | 0.28 | 1 | 1005.9 |
| 20260506213057 | 52 | 176 | 0.0 | 0.0 | 0.14 | 0.23 | 0.23 | 1 | 1006.1 |
| 20260506211558 | 52 | 210 | 0.0 | 0.0 | 0.10 | 0.16 | 0.16 | 1 | 1006.5 |
| 20260506210048 | 52 | 179 | 0.0 | 0.0 | 0.10 | 0.13 | 0.13 | 9 | 1006.5 |
| 20260506204549 | 53 | 211 | 0.0 | 0.0 | 0.09 | 0.11 | 0.11 | 1 | 1006.4 |
| 20260506203038 | 54 | 155 | 0.0 | 0.0 | 0.09 | 0.09 | 0.09 | 1 | 1006.4 |
| 20260506201534 | 53 | 118 | 0.0 | 0.0 | 0.05 | 0.05 | 0.05 | 1 | 1006.9 |
| 20260506200030 | 53 | 127 | 0.0 | 0.0 | 0.03 | 0.03 | 0.03 | 6 | 1006.8 |
| 20260506194527 | 53 | 165 | 0.0 | 0.0 | 0.02 | 0.02 | 0.02 | 27 | 1007.1 |
| 20260506193025 | 53 | 160 | 0.0 | 0.0 | 0.00 | 0.00 | 0.00 | 28 | 1006.8 |
| 20260506191526 | 53 | 186 | 0.0 | 0.0 | 0.00 | 0.00 | 0.00 | 47 | 1006.5 |
| 20260506190026 | 53 | 162 | 0.0 | 0.0 | 0.00 | 0.00 | 0.00 | 47 | 1006.6 |
| 20260506184522 | 53 | 165 | 0.0 | 0.0 | 0.00 | 0.00 | 0.00 | 45 | 1006.8 |
| 20260506183022 | 54 | 200 | 0.0 | 0.0 | 0.00 | 0.00 | 0.00 | 49 | 1007.0 |
| 20260506181522 | 53 | 176 | 0.0 | 0.0 | 0.00 | 0.00 | 0.00 | 47 | 1007.1 |
| 20260506180018 | 53 | 176 | 0.0 | 0.0 | 0.00 | 0.00 | 0.00 | 49 | 1007.3 |
| 20260506174517 | 53 | 186 | 0.0 | 0.0 | 0.00 | 0.00 | 0.00 | 52 | 1007.5 |
| 20260506173015 | 54 | 155 | 0.0 | 0.0 | 0.00 | 0.00 | 0.00 | 55 | 1007.6 |
| 20260506171517 | 55 | 187 | 0.0 | 0.0 | 0.00 | 0.00 | 0.00 | 61 | 1007.9 |
| 20260506170012 | 55 | 210 | 0.0 | 0.0 | 0.00 | 0.00 | 0.00 | 60 | 1008.1 |
| 20260506164511 | 55 | 197 | 0.0 | 0.0 | 0.00 | 0.00 | 0.00 | 54 | 1008.4 |
| 20260506163011 | 55 | 226 | 0.0 | 0.0 | 0.00 | 0.00 | 0.00 | 59 | 1008.6 |
| 20260506161510 | 55 | 201 | 0.0 | 0.0 | 0.00 | 0.00 | 0.00 | 58 | 1009.0 |
| 20260506160013 | 56 | 188 | 0.0 | 0.0 | 0.00 | 0.00 | 0.00 | 58 | 1009.0 |
| 20260506154509 | 55 | 196 | 0.0 | 0.0 | 0.00 | 0.00 | 0.00 | 59 | 1009.4 |
| 20260506153010 | 55 | 212 | 0.0 | 0.0 | 0.00 | 0.00 | 0.00 | 49 | 1009.1 |
| 20260506151607 | 55 | 219 | 0.0 | 0.0 | 0.00 | 0.00 | 0.00 | 55 | 1009.1 |
| 20260506150008 | 55 | 214 | 0.0 | 0.0 | 0.00 | 0.00 | 0.00 | 61 | 1008.8 |
| 20260506144507 | 56 | 188 | 0.0 | 0.0 | 0.00 | 0.00 | 0.00 | 59 | 1008.7 |
| 20260506143004 | 55 | 191 | 0.0 | 0.0 | 0.00 | 0.00 | 0.00 | 41 | 1009.1 |
| 20260506141502 | 53 | 214 | 0.0 | 0.0 | 0.00 | 0.00 | 0.00 | 34 | 1009.4 |
| 20260506140000 | 55 | 196 | 0.0 | 0.0 | 0.00 | 0.00 | 0.00 | 46 | 1009.4 |
| 20260506134604 | 55 | 189 | 0.0 | 0.0 | 0.00 | 0.00 | 0.00 | 49 | 1009.4 |
| 20260506133101 | 54 | 225 | 0.0 | 0.0 | 0.00 | 0.00 | 0.00 | 29 | 1009.2 |
| 20260506131558 | 53 | 178 | 0.0 | 0.0 | 0.00 | 0.00 | 0.00 | 43 | 1009.2 |
| 20260506130057 | 53 | 163 | 0.0 | 0.0 | 0.00 | 0.00 | 0.00 | 48 | 1009.0 |
| 20260506124558 | 54 | 195 | 0.0 | 0.0 | 0.00 | 0.00 | 0.00 | 54 | 1009.1 |
| 20260506123054 | 54 | 161 | 0.0 | 0.0 | 0.00 | 0.00 | 0.00 | 38 | 1009.3 |
| 20260506121552 | 53 | 167 | 0.0 | 0.0 | 0.00 | 0.00 | 0.00 | 39 | 1009.3 |
| 20260506120052 | 54 | 188 | 0.0 | 0.0 | 0.00 | 0.00 | 0.00 | 43 | 1009.3 |
| 20260506114552 | 53 | 182 | 0.0 | 0.0 | 0.00 | 0.00 | 0.00 | 39 | 1009.5 |
| 20260506113051 | 53 | 179 | 0.0 | 0.0 | 0.00 | 0.00 | 0.00 | 36 | 1009.7 |
| 20260506111551 | 52 | 202 | 0.0 | 0.0 | 0.00 | 0.00 | 0.00 | 30 | 1009.7 |
| 20260506110049 | 52 | 184 | 0.0 | 0.0 | 0.00 | 0.00 | 0.00 | 28 | 1009.7 |